Showing default

EXPRESS AM-33, 32478

Orbit data source: Space-Track

EXPRESS AM-33, 32478 is a payload satellite owned by KosSvyaz (CIS) in GEO that was launched on Mon, 28 Jan 2008 UTC via a PROTON-M/BRIZ-M launch vehicle from the Tyuratam Missile And Space Complex (TTMTR). Payload-class satellites include a variety of spacecraft equipped with specific instruments for various scientific and technological missions. These include communications satellites like Starlink; space stations such as the ISS; scientific satellites like the Hubble; Earth observation satellites from companies like Planet Labs, Umbra, and HawkEye 360; GPS; miniature CubeSats for education and research; and military/defense satellites.

Not visible in the next 10 days
Identifier
32478, 2008-003A
Orbit
GEO
Country
Flag of CISCIS
Related business
Manufacturer
Resehetnev ISS
Mission
Non-operational Commercial Communications
Bus & Motor
EKSPRESS-2000, AOCS
Mass
2,579 kg wet, ~1,500 kg dry
Launch date (UTC)
2008-01-28 (18 years ago)
Launch vehicle
PROTON-M/BRIZ-M
Launch site
Tyuratam Missile And Space Complex (TTMTR)
Object type
Payload
Rocket body
Debris
Shape & HBR
Cyl + 2 Pan, 13.3 m
Radar Cross Section
24.155 m², Large (>1 m²)

Expand to show TLE details & history
Last TLE update: 9 hours ago

TLE from 9 hours ago
0 EXPRESS AM-33
1 32478U 08003A   26171.53718484  .00000074  00000-0  00000+0 0  9992
2 32478   4.8107  75.2809 0012733 173.7279 226.3371  1.00220398 53770
Epoch: 2026-06-20T12:53Z
TLE epoch observation values (Epoch: 2026-06-20T12:53:32.770Z)
Latitude
3.10974°
Longitude
13.01867°
Altitude
35,837.476 km
Speed
3.072 km/s
True Right ascension
07h 40m 37s
True Declination
3° 06' 24"
Sunlit
Object was in daylight at epoch
Visualization orbit readout
Latitude
Unknown
Longitude
Unknown
Altitude
Unknown
Speed
Unknown
Apparent Right ascension
Unknown
Apparent Declination
Unknown
Sunlit
N/A
Visualization observer readout
Local Sidereal Time
08:33:47
Azimuth
Unknown
Elevation
Unknown
Doppler factor
Unknown
Orbital elements
Apogee altitude
35,855.774 km
Perigee altitude
35,748.358 km
Semi-major axis
42,180.203 km
Eccentricity
0.00127
Inclination
4.8107°
RAAN
75.2809°
Arg. of periapsis
173.7279°
True anomaly
226.23166°
Mean anomaly
226.3371°
Eccentric anomaly
226.28437°
Mean motion
0.25054 °/min
Orbital period
1,436.89 mins
BSTAR
0
Loading maneuver chart data...
Computing Atmospheric mass density...
Loading historical data...
Loading historical data...
Loading historical data...
Loading historical data...
Loading historical data...
Loading historical data...
Loading historical data...
Other satellites on launch #3 in the year 2008 (2008-01-28 UTC)

Documentation

Showing up to 5 results
|